Fountain, MN

11:14 PM CDT on August 26, 2016 (GMT -0500)
Preston

Weather History for KFKA - September, 2012

Change the Weather History Date:

Friday, September 7, 2012

  Actual Average (KRST) Record (KRST)
Temperature  
Mean Temperature 60 °F 64 °F  
Max Temperature 68 °F 75 °F 96 °F (1913)
Min Temperature 52 °F 54 °F 34 °F (1934)
Degree Days  
Heating Degree Days 5 3  
Month to date heating degree days 18  
Since 1 July heating degree days 56  
Cooling Degree Days 0 3  
Month to date cooling degree days 21  
Year to date cooling degree days 546  
Growing Degree Days 10 (Base 50)    
Moisture  
Dew Point 49 °F    
Average Humidity 67    
Maximum Humidity 86    
Minimum Humidity 42    
Precipitation  
Precipitation 0.00 in 0.12 in 2.39 in (1964)
Month to date precipitation 0.85  
Year to date precipitation 25.04  
Snow  
Snow 0.00 in 0.00 in 0.00 in (2012)
Month to date snowfall 0.0  
Since 1 July snowfall 0.0  
Snow Depth -    
Sea Level Pressure  
Sea Level Pressure 29.94 in    
Wind  
Wind Speed 7 mph (North)    
Max Wind Speed 18 mph    
Max Gust Speed 24 mph    
Visibility 10 miles    
Events Rain , Thunderstorm    
T = Trace of Precipitation, MM = Missing Value Source: NWS Daily Summary

Daily Weather History Graph

Daily Weather History Graph

Search for Another Location

Airport or City:

Trip Planner

Search our weather history database for the weather conditions in past years. The results will help you decide how hot, cold, wet, or windy it might be!

Date:

Astronomy

Sep. 07, 2012 Rise Set
Actual Time 6:39 AM CDT 7:32 PM CDT
Civil Twilight 6:10 AM CDT 8:01 PM CDT
Nautical Twilight 5:35 AM CDT 8:36 PM CDT
Astronomical Twilight 4:59 AM CDT 9:12 PM CDT
Moon 11:14 PM CDT (9/7) 1:45 PM CDT (9/7)
Length of Visible Light 13h 51m
Length of Day
12h 52m
Waning Gibbous, 58% of the Moon is Illuminated
Sep 7
Waning Gibbous
Sep 8
Last Quarter
Sep 15
New
Sep 22
First Quarter
Sep 29
Full

Hourly Weather History & Observations

Time (CDT) Temp. Dew Point Humidity Pressure Visibility Wind Dir Wind Speed Gust Speed Precip Events Conditions
12:14 AM 64.8 °F 51.4 °F 62% 29.90 in 10.0 mi ESE 3.5 mph - N/A   Overcast
12:34 AM 62.2 °F 53.2 °F 72% 29.90 in 10.0 mi Calm Calm - N/A Thunderstorm Overcast
1:13 AM 63.0 °F 51.4 °F 66% 29.89 in 10.0 mi SE 4.6 mph - N/A   Scattered Clouds
1:33 AM 62.8 °F 51.3 °F 66% 29.87 in 10.0 mi ESE 5.8 mph - N/A Thunderstorm Clear
1:53 AM 62.6 °F 50.9 °F 66% 29.86 in 10.0 mi SE 5.8 mph - N/A   Clear
2:13 AM 62.2 °F 52.2 °F 70% 29.87 in 10.0 mi SSE 3.5 mph - N/A   Mostly Cloudy
2:34 AM 61.7 °F 51.1 °F 68% 29.86 in 10.0 mi SE 8.1 mph - N/A   Scattered Clouds
2:53 AM 62.2 °F 50.9 °F 66% 29.86 in 10.0 mi SE 4.6 mph - N/A   Clear
3:14 AM 62.1 °F 50.7 °F 66% 29.85 in 10.0 mi SSE 4.6 mph - N/A   Clear
3:33 AM 60.1 °F 51.6 °F 74% 29.84 in 10.0 mi Calm Calm - N/A   Clear
3:53 AM 59.5 °F 52.0 °F 76% 29.85 in 10.0 mi East 5.8 mph - N/A   Mostly Cloudy
4:14 AM 61.5 °F 51.4 °F 69% 29.86 in 10.0 mi NNE 4.6 mph - N/A   Overcast
4:33 AM 60.1 °F 52.0 °F 75% 29.88 in 10.0 mi North 4.6 mph - N/A   Mostly Cloudy
4:54 AM 58.6 °F 52.2 °F 79% 29.88 in 10.0 mi North 5.8 mph - N/A   Scattered Clouds
5:13 AM 57.6 °F 52.2 °F 82% 29.89 in 10.0 mi North 3.5 mph - N/A   Clear
5:33 AM 59.4 °F 51.8 °F 76% 29.89 in 10.0 mi NE 3.5 mph - N/A   Clear
5:54 AM 59.2 °F 52.2 °F 78% 29.88 in 10.0 mi NNE 4.6 mph - N/A   Clear
6:13 AM 59.9 °F 52.9 °F 78% 29.88 in 10.0 mi NE 4.6 mph - N/A   Clear
6:34 AM 59.9 °F 53.6 °F 80% 29.90 in 10.0 mi North 5.8 mph - N/A   Mostly Cloudy
6:54 AM 59.5 °F 54.3 °F 83% 29.90 in 10.0 mi NE 6.9 mph - N/A   Overcast
7:13 AM 59.4 °F 54.5 °F 84% 29.90 in 10.0 mi NNE 9.2 mph - N/A Rain Light Rain
7:34 AM 59.0 °F 54.9 °F 86% 29.90 in 10.0 mi NNE 8.1 mph - N/A   Mostly Cloudy
7:53 AM 59.0 °F 54.9 °F 86% 29.91 in 10.0 mi NNE 8.1 mph - N/A   Scattered Clouds
8:14 AM 59.0 °F 54.7 °F 86% 29.94 in 10.0 mi North 5.8 mph - N/A   Scattered Clouds
8:53 AM 59.9 °F 54.9 °F 83% 29.95 in 10.0 mi North 12.7 mph 17.3 mph N/A   Mostly Cloudy
9:14 AM 60.4 °F 54.7 °F 81% 29.95 in 10.0 mi North 10.4 mph - N/A   Mostly Cloudy
9:34 AM 60.8 °F 54.3 °F 79% 29.94 in 10.0 mi NNE 12.7 mph 19.6 mph N/A   Mostly Cloudy
9:53 AM 61.3 °F 53.8 °F 76% 29.95 in 10.0 mi NE 12.7 mph - N/A   Mostly Cloudy
10:14 AM 61.0 °F 53.6 °F 77% 29.95 in 10.0 mi NNE 12.7 mph 17.3 mph N/A   Overcast
10:34 AM 61.0 °F 53.6 °F 77% 29.96 in 10.0 mi NNE 12.7 mph 18.4 mph N/A   Mostly Cloudy
10:53 AM 60.3 °F 53.4 °F 78% 29.96 in 10.0 mi NE 8.1 mph - N/A   Overcast
11:14 AM 60.3 °F 53.4 °F 78% 29.96 in 10.0 mi NNE 5.8 mph - N/A   Overcast
11:33 AM 59.9 °F 52.3 °F 76% 29.96 in 10.0 mi North 5.8 mph - N/A   Overcast
11:53 AM 59.9 °F 51.8 °F 75% 29.96 in 10.0 mi North 10.4 mph - N/A   Overcast
12:14 PM 59.9 °F 52.2 °F 76% 29.97 in 10.0 mi North 11.5 mph - N/A   Overcast
12:34 PM 59.9 °F 52.2 °F 76% 29.97 in 10.0 mi North 8.1 mph - N/A   Overcast
12:53 PM 61.0 °F 52.5 °F 74% 29.97 in 10.0 mi North 6.9 mph - N/A   Overcast
1:13 PM 62.1 °F 52.2 °F 70% 29.97 in 10.0 mi North 9.2 mph - N/A   Overcast
1:34 PM 63.1 °F 51.8 °F 66% 29.98 in 10.0 mi North 11.5 mph - N/A   Overcast
1:53 PM 64.8 °F 51.3 °F 62% 29.96 in 10.0 mi North 8.1 mph - N/A   Scattered Clouds
2:13 PM 64.8 °F 49.6 °F 58% 29.96 in 10.0 mi North 9.2 mph - N/A   Scattered Clouds
2:39 PM 65.3 °F 48.6 °F 55% 29.95 in 10.0 mi NNW 9.2 mph - N/A   Scattered Clouds
2:53 PM 66.0 °F 48.2 °F 53% 29.94 in 10.0 mi NNW 11.5 mph 18.4 mph N/A   Scattered Clouds
3:13 PM 66.6 °F 46.6 °F 49% 29.95 in 10.0 mi North 8.1 mph 17.3 mph N/A   Scattered Clouds
3:34 PM 66.4 °F 45.7 °F 47% 29.95 in 10.0 mi North 10.4 mph - N/A   Overcast
3:54 PM 67.6 °F 46.4 °F 46% 29.95 in 10.0 mi NNW 10.4 mph - N/A   Mostly Cloudy
4:13 PM 68.0 °F 45.0 °F 43% 29.95 in 10.0 mi North 11.5 mph 16.1 mph N/A   Overcast
4:54 PM 67.3 °F 43.3 °F 42% 29.95 in 10.0 mi NNW 13.8 mph 23.0 mph N/A   Scattered Clouds
5:13 PM 67.1 °F 43.2 °F 42% 29.95 in 10.0 mi NNW 15.0 mph 23.0 mph N/A   Clear
5:33 PM 66.2 °F 43.0 °F 43% 29.95 in 10.0 mi NNW 16.1 mph 24.2 mph N/A   Clear
5:54 PM 66.2 °F 43.9 °F 44% 29.95 in 10.0 mi NNW 11.5 mph 20.7 mph N/A   Clear
6:13 PM 65.1 °F 42.3 °F 43% 29.95 in 10.0 mi NNW 18.4 mph 24.2 mph N/A   Clear
6:34 PM 64.0 °F 42.1 °F 45% 29.95 in 10.0 mi NNW 11.5 mph 20.7 mph N/A   Clear
6:53 PM 63.0 °F 43.3 °F 49% 29.96 in 10.0 mi North 9.2 mph 17.3 mph N/A   Scattered Clouds
7:13 PM 60.8 °F 45.0 °F 56% 29.96 in 10.0 mi North 6.9 mph - N/A   Scattered Clouds
7:33 PM 59.0 °F 45.7 °F 61% 29.96 in 10.0 mi NNW 8.1 mph - N/A   Clear
7:53 PM 57.6 °F 45.7 °F 65% 29.97 in 10.0 mi NNW 8.1 mph - N/A   Clear
8:14 PM 56.8 °F 43.9 °F 62% 29.97 in 10.0 mi NNW 9.2 mph - N/A   Clear
8:34 PM 56.3 °F 44.2 °F 64% 29.98 in 10.0 mi NNW 8.1 mph - N/A   Clear
8:54 PM 55.8 °F 44.1 °F 65% 29.99 in 10.0 mi NNW 10.4 mph - N/A   Clear
9:14 PM 55.4 °F 43.7 °F 65% 30.00 in 10.0 mi North 9.2 mph - N/A   Clear
9:53 PM 53.2 °F 43.9 °F 71% 30.00 in 10.0 mi NNW 6.9 mph - N/A   Clear
10:14 PM 52.7 °F 43.2 °F 70% 30.01 in 10.0 mi NNW 9.2 mph - N/A   Clear
10:34 PM 52.9 °F 42.8 °F 69% 30.01 in 10.0 mi NNW 10.4 mph - N/A   Clear
10:53 PM 53.2 °F 42.4 °F 67% 30.01 in 10.0 mi NNW 10.4 mph 16.1 mph N/A   Clear
11:34 PM 52.9 °F 43.0 °F 69% 30.01 in 10.0 mi NNW 10.4 mph - N/A   Clear
11:54 PM 52.3 °F 43.2 °F 71% 30.01 in 10.0 mi NNW 9.2 mph - N/A   Clear